Showing default

CHUBUSAT 3, 41339

Orbit data source: Space-Track

CHUBUSAT 3, 41339 is a Japanese payload satellite in LEO that was launched on Wed, 17 Feb 2016 UTC via an H-IIA 202 launch vehicle from the Tanegashima Space Center (TNSTA). Payloads include a variety of satellites, spacecraft, and rockets equipped with specific instruments for various scientific and technological missions. These include communications satellites like Starlink; space stations such as the ISS; scientific satellites like the Hubble; Earth observation satellites from companies like Planet Labs, Umbra, and HawkEye 360; GPS; miniature CubeSats for education and research; and military/defense satellites.

Loading next visibility...
CHUBUSAT 3 details
Identifier
41339, 2016-012C
Orbit
LEO
Last TLE update13 hours ago
Origin
Flag of JPNAG/MHIME (JP / JPN)
ManufacturerNAG/MHIME
MissionNon-operational Amateur Imaging
Bus & MotorUnknown
Mass52 kg wet, 52 kg dry
Launch date (UTC)
2016-02-17 (9 years ago)
Launch vehicle
H-IIA 202
Launch site
Tanegashima Space Center (TNSTA)
Object type
Payload
Rocket body
Debris
Shape & HBRBox, 0.6 m
Radar Cross Section0.480 m², Medium (>0.1 m² and < 1m²)

Expand to show TLE details & history

TLE from 13 hours ago
0 CHUBUSAT 3
1 41339U 16012C   24360.99248864  .00009681  00000-0  55164-3 0  9993
2 41339  31.0055 232.6885 0010871   7.0688 353.0103 15.11471761486496
Epoch: 2024-12-25T23:49Z
Definitive object data (Epoch: 2024-12-25T23:49:11.018Z)
Latitude0.00001°
Longitude140.41433°
Altitude522.766 km
Speed7.608 km/s
True Right ascension15h 30m 45s
True Declination0° 00' 00"
Sunlit
Object was in daylight at TLE epoch
Visualization TLE readout
Latitude28.17835°
Longitude-105.57126°
Altitude532.198 km
Speed7.601 km/s
Apparent Right ascension23h 40m 06s
Apparent Declination-4° 21' 05"
Sunlit
Object is in daylight
Visualization observer readout
Local Sidereal Time12:21:37
Azimuth17.46° NNE
Elevation-53.22°
Doppler factor1
Orbital elements
Apogee altitude543.069 km
Perigee altitude528.038 km
Semi-major axis6,913.691 km
Eccentricity0.0010871
Inclination31.0055°
RAAN232.6885°
Arg. of periapsis7.0688°
True anomaly352.99512°
Mean anomaly353.0103°
Eccentric anomaly353.00271°
Mean motion3.77553 °/min
BSTAR0.00055164
Orbital period95.35 mins
Loading maneuver chart data...
Loading historical data...
Loading historical data...
Loading historical data...
Loading historical data...
Loading historical data...
Loading historical data...
Loading historical data...

CHUBUSAT 3 Visibility forecast

Observer location: undefined°, undefined

Span
Click to sort rows by Start time (UTC) header in descending order
Start Az.
Max El. time (UTC)
Max El. Az.
Max El.
End time (UTC)
End Az.
4 mins2024-12-26 20:45:01.512Z194.386° SSW2024-12-26 20:46:01.512Z174.162° S19.205°2024-12-26 20:49:01.512Z124.53° SE
4 mins2024-12-26 22:25:01.512Z214.507° SW2024-12-26 22:26:01.512Z194.81° SSW19.873°2024-12-26 22:29:01.512Z140.625° SSE
|